Wetbulb
46.96 46.92 46.60 47.25 47.69 48.09 47.28 47.22 46.05 44.84 43.44 42.94 42.54 42.27 41.92 41.59 42.02 42.28 42.55 41.86 41.36 40.55 40.16 40.00 38.60 38.46 37.48 36.77 36.87 36.78 35.58 36.41 36.82 34.47 36.13 34.44 33.08 32.30 31.86 32.18 31.64 30.49 30.54
46.55 46.00 45.24 45.49 44.97 44.75 44.88 45.25 44.20 42.43 42.19 42.06 41.60 40.94 40.54 40.28 40.42 40.45 40.27 39.68 39.10 37.66 37.61 37.06 34.97 35.19 34.94 35.24 35.14 34.31 34.38 33.72 33.61 33.34 33.24 32.54 31.87 31.18 30.17 29.45 29.32 29.97 29.07
45.75 44.36 43.86 43.67 42.84 42.62 43.02 42.74 41.71 41.23 40.63 40.69 40.28 39.52 39.10 39.10 38.72 39.33 39.21 37.80 37.74 37.00 36.07 35.36 34.00 33.80 33.00 33.04 33.25 32.44 32.44 31.82 32.31 31.63 30.90 31.41 31.04 30.43 28.21 29.04 27.78 28.13 28.73
44.96 43.87 42.72 42.26 42.03 42.07 42.09 41.22 40.20 40.16 39.62 39.61 39.34 38.93 38.30 37.62 37.08 36.64 36.27 35.66 35.37 34.68 34.41 34.10 33.21 33.07 32.80 32.24 31.30 31.55 30.88 30.75 30.52 29.96 29.17 29.00 28.78 27.29 27.03 24.30 24.21 26.22 24.96
43.95 42.84 42.34 42.12 41.46 40.66 39.70 38.96 38.51 38.08 38.16 38.37 37.52 36.95 36.08 35.45 35.14 34.41 33.78 33.95 32.98 32.15 32.30 31.80 32.09 30.40 30.07 30.52 30.83 29.85 29.62 29.35 28.75 27.85 27.29 27.03 26.45 23.62 21.49 22.49 21.76 22.62 23.91
43.25 41.74 41.59 40.54 39.05 37.99 37.38 36.58 35.93 35.49 35.44 35.51 34.89 34.46 33.63 33.82 35.35 35.51 33.67 32.44 31.44 30.62 29.57 29.43 27.91 27.75 27.87 28.03 28.04 28.30 28.08 27.58 26.44 25.86 25.48 23.47 22.13 21.64 21.92 20.64 20.43 18.56 18.01
42.56 41.36 39.96 38.95 37.51 36.47 36.08 35.10 33.99 33.76 33.91 33.39 33.55 33.41 32.63 32.76 34.36 34.15 33.67 31.56 30.92 30.25 29.07 27.83 26.69 27.02 27.27 25.79 26.59 26.19 26.05 25.97 25.99 24.81 22.79 21.53 20.42 20.44 19.89 19.34 18.96 17.43 17.31
41.14 40.31 39.65 38.02 37.19 36.12 34.75 33.57 33.14 32.58 32.09 31.93 32.40 32.55 32.12 32.30 33.01 33.64 32.17 30.50 30.23 29.88 28.91 27.66 26.14 25.36 26.30 25.65 24.52 23.86 23.32 23.13 22.99 22.72 22.06 20.90 21.00 20.68 19.89 18.65 16.81 16.42 17.68
40.08 39.07 38.78 37.65 35.97 34.90 33.07 32.62 32.73 31.81 31.38 31.30 31.73 31.59 30.93 30.85 32.70 33.35 31.04 28.87 27.92 27.61 27.96 27.70 26.49 25.61 26.85 26.62 23.95 22.90 22.08 20.97 22.24 21.24 20.88 20.27 19.50 18.99 17.54 17.40 15.26 13.06 13.55
38.62 37.65 37.15 36.72 35.11 34.14 33.26 32.42 32.23 31.82 30.70 30.56 30.22 31.42 31.01 30.69 32.84 33.08 30.65 27.64 26.01 25.81 25.84 26.16 26.57 25.88 26.85 25.91 23.36 22.39 20.36 20.59 19.45 17.07 16.49 16.44 17.08 16.10 15.41 15.93 14.34 11.50 11.73
34.03 33.61 33.52 33.45 32.78 33.58 32.85 31.93 30.88 30.28 29.56 29.01 28.84 29.89 30.27 30.69 31.42 32.94 31.55 26.81 26.01 24.77 23.84 23.43 24.04 26.41 26.36 25.50 23.91 21.93 21.79 21.58 19.34 16.54 15.14 14.76 15.01 14.69 14.44 13.90 13.93 12.46 10.74
30.39 30.29 30.17 29.82 30.36 30.31 31.19 30.03 29.48 29.13 28.03 27.49 27.48 27.77 28.91 29.14 31.17 32.23 31.92 28.82 28.28 25.09 23.63 23.74 23.61 25.95 25.90 24.38 22.09 21.47 21.44 19.24 16.54 14.38 13.06 12.93 12.94 12.65 12.47 11.70 12.05 12.12 12.60
26.84 27.03 27.24 27.33 28.71 29.10 29.65 28.35 27.67 28.00 27.55 26.73 26.51 26.33 26.51 27.64 29.10 31.68 31.31 29.46 28.34 25.16 25.34 25.01 25.22 26.29 25.64 23.45 22.13 20.72 18.71 15.28 14.09 11.89 11.33 12.21 12.49 12.34 10.87 9.55 10.27 10.30 9.46
26.14 27.13 26.34 25.63 26.50 27.09 27.91 28.25 27.90 27.09 26.68 26.70 26.11 25.82 25.95 25.78 27.21 28.60 28.41 28.50 26.66 26.09 25.88 24.39 23.84 24.57 23.63 20.46 18.43 18.52 15.96 14.49 12.85 11.85 11.65 11.75 10.67 8.15 7.57 9.27 7.11 7.84 5.64
24.20 24.93 24.58 25.17 25.93 25.64 26.03 26.98 26.52 27.98 28.26 27.62 27.50 27.14 25.43 23.67 25.56 28.85 27.99 26.55 24.89 23.54 22.26 21.48 20.99 18.84 16.31 14.08 13.90 14.29 13.06 10.62 8.68 10.11 9.53 8.52 7.97 8.03 7.45 8.14 6.41 4.51 1.74
22.00 23.84 23.92 24.05 23.80 24.35 24.75 24.26 27.98 28.59 28.98 30.19 30.18 28.67 27.45 27.77 28.30 29.43 29.79 28.70 26.76 25.15 19.25 18.77 17.32 15.69 14.12 13.71 12.88 11.69 11.36 9.85 9.83 9.77 8.36 7.67 6.66 6.31 6.09 6.13 4.96 1.93 0.70
19.49 22.19 23.87 21.19 22.34 21.83 21.96 21.77 21.61 24.18 26.97 28.28 28.84 29.01 28.18 26.89 27.72 28.53 29.27 28.84 27.17 25.13 17.17 17.76 16.51 15.43 15.34 15.64 14.61 13.14 10.91 10.19 9.26 8.10 7.28 6.50 5.90 5.31 2.51 1.64 2.82 2.70 0.45
16.69 17.94 20.47 22.41 21.77 21.80 21.65 21.75 22.46 21.53 21.00 22.90 26.89 26.48 27.46 26.31 26.91 27.77 28.37 28.25 23.99 24.43 18.02 16.77 16.14 17.01 16.47 15.10 13.75 12.36 11.01 9.07 6.29 5.84 5.63 5.13 3.76 2.30 0.97 0.38 1.01 -2.31 -2.13
15.62 18.51 20.64 20.75 21.39 21.15 21.39 21.60 22.04 22.07 22.11 22.79 23.29 25.22 25.66 26.44 27.21 27.79 28.21 23.03 20.02 19.95 20.08 18.01 17.58 17.31 15.94 14.38 12.80 10.80 9.28 7.81 6.00 4.11 3.64 2.45 1.18 -0.52 -2.06 -1.82 -1.11 -3.71 -5.47
14.87 15.36 16.17 18.67 19.39 18.71 19.49 20.13 19.96 20.80 21.94 19.58 19.79 18.14 16.00 21.72 22.47 23.04 23.90 22.28 20.65 18.95 15.61 14.98 13.92 13.63 12.52 10.80 9.29 7.80 5.90 3.59 2.45 1.34 1.46 0.77 -0.56 -1.12 -2.74 -6.19 -5.17 -4.73 -6.03
15.15 16.81 17.01 16.64 17.84 18.32 18.77 18.44 18.66 19.13 18.58 17.64 18.34 15.31 18.36 19.09 17.77 15.73 13.14 12.74 13.32 13.36 12.54 11.98 11.19 9.86 8.33 7.19 5.99 4.96 2.93 2.97 2.40 0.61 -0.24 -1.36 -3.98 -3.98 -3.63 -2.99 -4.95 -6.59 -7.39
14.50 15.54 16.15 15.61 16.56 16.34 16.48 17.03 16.93 16.83 16.69 16.22 14.28 14.34 20.76 12.59 12.72 11.48 10.60 9.45 8.40 8.64 8.19 7.31 6.07 5.41 3.94 2.44 1.58 1.06 0.98 -0.17 -0.38 -1.47 -2.35 -5.40 -6.76 -5.91 -8.82 -6.98 -8.30 -7.82 -9.71
13.12 13.19 13.42 13.62 13.66 13.77 13.56 14.19 14.01 14.29 14.27 14.02 10.48 9.91 10.71 9.55 8.77 7.88 7.27 6.63 5.31 4.15 3.39 2.50 2.21 1.18 1.15 -0.71 0.51 1.30 0.29 -0.85 -1.50 -2.34 -4.63 -6.66 -7.97 -7.32 -8.18 -7.71 -9.66 -12.21 -10.74
11.94 11.59 11.61 11.90 11.03 10.50 10.68 9.86 9.21 8.97 9.23 8.04 7.01 6.71 6.53 6.14 6.31 6.00 5.33 4.10 2.46 1.23 0.40 -1.94 -2.84 -2.63 -2.90 -2.81 -3.02 -2.44 -2.11 -2.07 -4.59 -6.13 -8.49 -9.48 -8.58 -9.57 -10.36 -11.35 -11.42 -12.64 -13.21
10.52 9.80 9.70 9.30 8.19 7.67 7.18 6.54 5.63 5.00 4.64 4.46 3.73 3.57 3.19 2.88 2.00 1.58 1.39 0.40 -1.00 -1.87 -2.62 -4.95 -4.81 -5.00 -5.45 -5.34 -4.44 -3.86 -3.74 -1.64 -5.30 -8.12 -12.36 -12.62 -13.35 -14.60 -13.42 -12.61 -13.03 -14.26 -14.37
8.36 7.83 7.46 6.46 5.65 5.13 4.75 4.31 3.62 2.85 2.14 2.17 2.22 1.77 1.40 0.85 0.79 0.49 -0.21 -1.70 -3.31 -4.58 -5.83 -5.12 -5.25 -5.69 -4.78 -4.53 -5.12 -5.46 -5.49 -2.27 -6.32 -6.96 -10.74 -11.69 -12.79 -12.70 -13.16 -13.90 -16.73 -14.41 -15.36
MSLP
1016.31 1016.48 1016.74 1016.89 1017.06 1017.23 1017.47 1017.70 1018.00 1018.25 1018.51 1018.87 1019.26 1019.60 1019.85 1020.09 1020.31 1020.59 1020.92 1021.25 1021.51 1021.88 1022.17 1022.36 1022.69 1022.94 1023.14 1023.36 1023.50 1023.54 1023.62 1023.65 1023.71 1024.56 1024.96 1025.76 1026.25 1026.45 1026.70 1026.78 1026.85 1026.81 1026.86
1016.13 1016.40 1016.65 1016.73 1016.89 1016.99 1017.02 1017.12 1017.44 1017.78 1018.14 1018.49 1018.98 1019.41 1019.73 1020.00 1020.28 1020.56 1020.89 1021.22 1021.59 1022.06 1022.41 1022.69 1023.01 1023.26 1023.43 1023.59 1023.71 1023.82 1024.00 1024.20 1024.13 1024.22 1024.96 1025.48 1025.89 1026.49 1026.71 1026.68 1026.73 1026.75 1026.88
1016.01 1016.15 1016.19 1016.18 1016.28 1016.41 1016.62 1016.95 1017.38 1017.71 1018.06 1018.42 1018.82 1019.18 1019.47 1019.81 1020.18 1020.52 1020.80 1021.19 1021.47 1021.84 1022.25 1022.45 1022.72 1023.02 1023.34 1023.65 1023.83 1024.09 1024.31 1024.53 1024.70 1024.81 1025.23 1025.87 1026.24 1026.73 1026.99 1026.89 1026.96 1026.99 1026.96
1015.39 1015.45 1015.63 1015.68 1015.92 1016.19 1016.41 1016.69 1017.01 1017.26 1017.57 1017.99 1018.39 1018.74 1019.14 1019.56 1019.96 1020.32 1020.65 1021.00 1021.32 1021.72 1022.11 1022.44 1022.76 1022.93 1023.27 1023.53 1023.75 1024.02 1024.31 1024.51 1024.79 1024.87 1025.11 1025.47 1025.93 1026.59 1026.97 1027.38 1027.33 1027.25 1027.12
1014.61 1014.79 1014.46 1014.80 1015.34 1015.64 1015.84 1016.05 1016.56 1017.06 1017.37 1017.68 1018.06 1018.54 1018.92 1019.30 1019.66 1020.12 1020.55 1020.85 1021.26 1021.78 1022.26 1022.67 1022.95 1023.21 1023.50 1023.77 1024.01 1024.36 1024.58 1024.73 1024.99 1025.19 1025.46 1025.77 1026.00 1026.63 1026.89 1027.16 1027.32 1027.23 1027.11
1013.91 1013.93 1014.20 1014.48 1014.66 1015.06 1015.56 1015.80 1015.99 1016.30 1016.73 1017.25 1017.74 1018.26 1018.68 1018.97 1019.29 1019.76 1020.16 1020.53 1020.92 1021.43 1021.89 1022.61 1023.44 1023.92 1024.07 1024.28 1024.55 1024.79 1024.92 1024.98 1025.20 1025.48 1025.77 1026.28 1026.77 1027.19 1027.50 1027.51 1027.60 1027.49 1027.25
1013.39 1013.38 1013.52 1013.76 1013.96 1014.21 1014.78 1015.51 1015.84 1015.87 1016.33 1016.75 1017.20 1017.66 1018.03 1018.51 1018.98 1019.54 1020.00 1020.32 1020.78 1021.25 1021.77 1022.36 1023.08 1023.57 1023.94 1024.30 1024.60 1024.93 1025.26 1025.60 1025.70 1025.77 1025.98 1026.56 1027.03 1027.43 1027.81 1027.63 1027.94 1028.04 1028.06
1013.44 1013.48 1013.50 1013.48 1013.55 1014.01 1014.45 1014.64 1015.13 1015.45 1015.76 1016.28 1016.84 1017.41 1017.91 1018.32 1018.82 1019.39 1019.92 1020.20 1020.61 1021.05 1021.64 1022.12 1022.68 1023.21 1023.59 1023.88 1024.18 1024.51 1025.01 1025.59 1025.90 1026.00 1026.58 1027.02 1027.33 1027.77 1027.97 1028.03 1028.21 1028.33 1028.19
1013.44 1013.23 1012.93 1012.84 1012.98 1013.24 1013.40 1013.75 1014.27 1014.70 1014.99 1015.44 1016.09 1016.81 1017.41 1017.94 1018.49 1019.14 1019.81 1020.14 1020.44 1020.84 1021.44 1022.00 1022.31 1022.68 1023.21 1023.58 1023.83 1024.24 1024.62 1025.58 1026.33 1026.52 1027.01 1027.65 1028.11 1028.36 1028.36 1028.14 1028.35 1028.47 1028.19
1013.38 1013.24 1012.98 1012.88 1012.97 1012.91 1013.11 1013.61 1014.03 1014.29 1014.51 1015.00 1015.47 1015.95 1016.51 1017.16 1017.82 1018.52 1019.22 1019.62 1020.13 1020.61 1021.14 1021.73 1022.23 1022.44 1023.16 1023.58 1023.78 1023.98 1024.20 1024.81 1025.89 1026.42 1027.03 1027.75 1028.34 1028.89 1028.75 1028.36 1028.61 1028.69 1028.44
1012.86 1013.14 1013.13 1012.85 1012.63 1012.48 1012.66 1013.00 1013.38 1013.80 1014.20 1014.65 1015.04 1015.39 1015.82 1016.44 1016.97 1017.67 1018.48 1018.93 1019.38 1020.05 1020.70 1021.35 1021.83 1022.01 1022.93 1023.54 1024.09 1024.38 1024.16 1024.34 1025.82 1026.17 1026.58 1027.05 1027.85 1028.39 1028.70 1028.90 1028.92 1028.74 1028.57
1013.86 1013.30 1012.76 1012.77 1012.81 1012.69 1012.71 1012.76 1013.15 1013.55 1013.89 1014.26 1014.68 1015.02 1015.35 1015.88 1016.41 1016.99 1017.72 1018.31 1018.76 1019.64 1020.10 1020.67 1021.32 1021.71 1022.51 1023.61 1024.25 1024.74 1024.84 1025.34 1025.92 1026.50 1026.73 1026.87 1027.28 1027.91 1028.57 1029.04 1029.08 1028.87 1028.79
1013.89 1013.76 1013.43 1012.71 1012.40 1012.55 1012.88 1013.09 1013.26 1013.35 1013.45 1013.67 1014.01 1014.45 1014.93 1015.51 1016.05 1016.64 1017.31 1018.03 1018.56 1019.14 1019.94 1020.67 1021.00 1021.29 1021.90 1023.20 1023.86 1024.69 1025.51 1026.04 1026.52 1026.71 1026.64 1026.73 1027.04 1027.68 1028.60 1028.94 1028.99 1029.00 1028.95
1014.13 1013.58 1013.05 1013.56 1012.39 1012.27 1012.56 1012.77 1013.10 1013.28 1013.50 1013.91 1013.91 1013.95 1014.53 1015.28 1015.72 1016.22 1016.92 1017.69 1018.42 1019.00 1019.45 1020.66 1021.21 1021.24 1021.61 1022.71 1023.55 1024.35 1025.21 1025.94 1026.58 1026.62 1026.57 1026.77 1027.11 1027.84 1028.31 1028.41 1028.71 1028.73 1028.67
1014.37 1013.79 1013.42 1013.07 1012.84 1012.62 1011.81 1011.70 1012.22 1012.30 1012.62 1013.15 1013.61 1013.98 1014.22 1014.41 1014.42 1014.96 1015.72 1016.71 1017.73 1018.55 1019.29 1020.23 1021.17 1021.69 1022.06 1023.03 1023.72 1023.99 1025.04 1026.22 1026.53 1026.64 1026.82 1027.09 1027.29 1027.53 1027.81 1028.10 1028.42 1028.66 1028.63
1014.37 1013.70 1013.25 1012.95 1012.72 1012.43 1012.27 1011.83 1011.62 1011.79 1012.02 1012.34 1012.61 1013.16 1013.50 1013.79 1014.40 1014.76 1015.24 1016.01 1017.19 1018.27 1019.39 1019.97 1021.03 1021.70 1022.09 1022.69 1023.40 1023.90 1024.62 1025.62 1026.10 1026.37 1026.59 1026.79 1026.99 1027.30 1027.51 1027.89 1028.20 1028.41 1028.46
1014.54 1013.78 1013.16 1012.92 1012.48 1012.27 1012.14 1011.97 1011.88 1011.89 1011.81 1011.92 1012.10 1012.34 1012.73 1013.23 1013.80 1014.37 1014.85 1015.52 1016.62 1017.69 1018.69 1019.49 1020.28 1020.95 1021.45 1021.96 1022.52 1023.14 1024.01 1024.93 1025.63 1026.06 1026.29 1026.44 1026.68 1027.07 1027.40 1027.66 1027.79 1027.94 1028.10
1014.52 1013.85 1013.34 1012.71 1012.42 1012.18 1012.05 1011.89 1011.66 1011.61 1011.52 1011.75 1011.90 1012.11 1012.59 1013.17 1013.45 1013.97 1014.64 1015.42 1016.19 1016.81 1017.88 1018.75 1019.56 1020.11 1020.59 1021.21 1021.94 1022.83 1023.62 1024.50 1025.28 1025.75 1025.94 1026.15 1026.43 1026.81 1027.06 1027.22 1027.37 1027.64 1027.83
1014.62 1013.73 1013.15 1012.80 1012.42 1012.21 1012.01 1011.76 1011.55 1011.38 1011.28 1011.49 1011.86 1012.15 1012.54 1012.96 1013.32 1013.66 1014.27 1014.81 1015.56 1016.42 1017.43 1018.22 1018.85 1019.32 1020.06 1020.84 1021.75 1022.61 1023.29 1024.00 1024.68 1025.25 1025.50 1025.77 1026.09 1026.42 1026.65 1026.83 1027.05 1027.33 1027.56
1014.50 1013.81 1013.38 1012.87 1012.44 1012.20 1011.93 1011.65 1011.52 1011.43 1011.31 1011.55 1011.85 1012.35 1012.80 1013.08 1013.20 1013.42 1013.87 1014.76 1015.57 1016.36 1017.49 1018.17 1018.76 1019.37 1020.10 1020.80 1021.63 1022.35 1023.09 1023.74 1024.29 1024.82 1025.11 1025.36 1025.66 1025.90 1026.13 1026.41 1026.70 1026.98 1027.12
1014.51 1013.81 1013.29 1013.01 1012.58 1012.28 1012.01 1011.80 1011.73 1011.73 1011.74 1011.98 1012.22 1012.75 1012.78 1013.02 1013.48 1013.98 1014.74 1015.55 1016.22 1016.97 1017.64 1018.14 1018.78 1019.51 1020.25 1020.78 1021.42 1022.07 1022.63 1023.21 1023.72 1024.17 1024.49 1024.80 1025.15 1025.45 1025.62 1025.80 1026.06 1026.34 1026.60
1014.56 1013.96 1013.49 1013.17 1012.86 1012.61 1012.43 1012.27 1012.18 1012.19 1012.27 1012.42 1012.80 1013.15 1013.02 1013.81 1014.25 1014.74 1015.45 1016.24 1016.92 1017.52 1018.03 1018.45 1018.98 1019.56 1020.07 1020.62 1021.20 1021.72 1022.22 1022.74 1023.07 1023.36 1023.80 1024.18 1024.50 1024.89 1025.17 1025.42 1025.71 1025.90 1026.09
1014.69 1014.19 1013.80 1013.53 1013.32 1013.08 1012.91 1012.81 1012.80 1012.81 1012.82 1012.96 1013.41 1013.72 1013.97 1014.50 1015.12 1015.71 1016.29 1016.92 1017.45 1017.94 1018.43 1018.76 1019.13 1019.59 1020.11 1020.60 1020.91 1021.17 1021.53 1021.90 1022.33 1022.64 1023.04 1023.61 1024.09 1024.34 1024.49 1024.81 1025.16 1025.38 1025.50
1014.92 1014.56 1014.17 1013.87 1013.74 1013.61 1013.49 1013.47 1013.58 1013.64 1013.70 1013.90 1014.17 1014.47 1014.80 1015.28 1015.72 1016.23 1016.72 1017.19 1017.62 1018.09 1018.48 1018.92 1019.06 1019.29 1019.75 1020.16 1020.64 1020.97 1021.16 1021.37 1021.63 1022.05 1022.53 1023.19 1023.50 1023.65 1023.82 1024.04 1024.32 1024.56 1024.87
1015.13 1014.85 1014.58 1014.38 1014.26 1014.13 1014.09 1014.13 1014.29 1014.44 1014.53 1014.74 1014.96 1015.23 1015.61 1015.95 1016.27 1016.64 1016.97 1017.27 1017.57 1018.01 1018.28 1018.53 1018.78 1019.06 1019.31 1019.71 1020.06 1020.30 1020.49 1020.69 1021.17 1021.62 1022.15 1022.63 1022.96 1023.07 1023.19 1023.44 1023.72 1023.88 1024.02
1015.41 1015.12 1014.89 1014.77 1014.68 1014.63 1014.59 1014.60 1014.71 1014.92 1015.05 1015.26 1015.47 1015.67 1015.85 1016.12 1016.38 1016.68 1016.97 1017.17 1017.32 1017.56 1017.93 1018.10 1018.30 1018.55 1018.73 1018.98 1019.25 1019.54 1019.77 1020.00 1020.49 1021.01 1021.54 1021.92 1022.30 1022.40 1022.61 1022.82 1023.05 1023.19 1023.26
Wind_Speed
7 7 7 6 7 6 6 7 7 7 7 8 8 7 7 7 6 5 5 5 5 4 3 4 4 4 3 3 2 1 2 1 2 2 4 4 4 3 3 2 2 3 4
7 6 7 7 8 9 9 9 8 9 8 7 7 7 7 6 6 6 6 5 5 5 5 4 4 3 4 3 2 2 2 2 2 4 4 4 2 3 2 1 2 2 3
8 9 10 10 10 10 9 8 8 7 7 8 8 8 8 7 7 6 6 6 6 6 6 6 6 6 5 3 3 3 3 2 1 1 3 2 2 3 3 2 3 3 3
10 11 11 11 10 8 8 8 9 9 9 9 9 8 7 7 7 6 6 7 6 6 5 5 5 5 5 6 4 4 3 3 2 2 2 3 2 4 0 3 3 3 3
12 12 14 10 10 10 11 11 10 9 8 8 8 7 7 7 6 8 8 8 7 7 6 5 4 6 9 5 3 4 3 3 2 2 2 2 2 1 1 1 2 3 2
12 14 11 9 11 11 10 11 10 10 9 8 9 9 9 7 11 14 10 8 8 8 8 7 8 8 8 9 8 9 5 2 3 1 2 1 2 1 1 2 2 2 1
12 12 11 11 12 12 11 10 11 11 9 10 10 10 10 9 14 16 13 7 7 8 8 8 8 5 8 8 9 10 9 9 7 2 3 2 2 2 1 1 2 2 3
11 11 11 11 12 10 11 12 12 10 11 9 10 9 8 8 15 17 14 8 7 7 8 9 9 9 8 8 9 8 8 6 4 4 3 4 3 2 1 2 2 3 5
11 12 11 11 12 12 14 14 12 11 11 10 9 10 9 7 17 19 15 7 7 8 7 8 8 9 13 13 8 8 8 8 7 8 8 7 5 5 3 1 1 1 2
10 10 7 7 9 11 11 10 9 9 9 8 9 10 11 10 20 22 17 7 9 7 7 7 9 10 16 14 7 8 8 9 9 7 6 6 4 4 2 2 1 2 0
4 7 7 7 9 9 8 8 9 9 8 9 10 9 10 11 16 23 23 9 8 8 8 7 7 15 16 12 8 5 6 9 7 5 4 4 4 4 2 1 1 1 2
8 8 6 4 4 4 5 5 7 9 9 9 9 8 8 10 15 23 24 17 15 9 9 7 8 18 16 12 7 7 9 7 4 4 4 4 4 4 3 2 3 3 3
7 9 7 4 5 4 5 5 6 8 8 9 9 9 8 8 8 23 24 20 16 9 7 11 15 19 17 11 10 9 7 3 3 3 4 4 4 3 2 3 4 4 5
11 9 4 6 4 5 4 5 6 6 6 6 7 8 7 8 9 10 10 12 13 10 12 9 12 14 13 10 7 7 5 4 4 4 3 2 4 4 4 3 3 3 3
9 8 5 4 5 5 5 7 7 6 9 7 8 8 9 10 11 17 16 11 10 11 9 8 7 6 7 6 5 6 4 3 3 3 3 3 4 4 4 3 3 2 3
10 7 6 5 4 4 5 4 11 13 14 17 15 12 6 11 18 24 25 24 23 23 8 8 8 7 7 7 7 6 6 7 6 5 4 4 4 4 4 4 4 3 4
10 9 6 5 5 5 5 5 6 7 13 17 16 17 16 14 20 24 25 25 25 22 8 8 8 8 8 7 7 7 7 6 6 5 5 5 4 4 3 3 4 4 4
9 10 7 6 5 5 5 6 6 6 7 7 14 12 16 16 19 23 23 21 12 15 9 8 8 8 7 7 6 6 5 5 5 5 5 5 4 4 4 4 4 3 4
8 7 6 6 5 5 5 6 5 6 6 6 5 10 11 15 18 21 25 9 8 8 7 8 7 6 5 5 5 5 5 6 6 6 6 5 5 5 5 4 4 4 3
8 9 8 6 5 5 5 5 5 5 4 4 5 4 3 5 8 8 8 6 6 6 6 6 5 4 5 5 5 5 5 5 5 5 6 5 5 5 5 4 4 5 5
7 7 6 6 5 4 4 4 3 3 3 4 3 5 11 7 4 5 5 4 4 4 4 4 4 4 4 4 4 5 5 5 6 6 6 6 4 5 5 5 5 5 5
7 6 5 5 4 3 3 3 2 2 3 3 3 4 14 3 3 3 4 4 3 3 3 3 3 4 5 5 6 6 6 7 6 5 5 3 3 4 3 4 4 5 4
6 6 6 5 4 4 3 2 2 2 1 2 3 2 2 4 3 3 3 3 3 4 3 3 3 3 3 3 3 5 6 7 6 5 5 5 5 5 4 6 5 4 5
6 7 6 4 3 3 3 1 1 2 2 3 3 3 3 3 3 3 3 4 3 3 3 3 3 5 4 5 5 5 5 4 3 4 5 3 4 5 3 3 4 5 4
6 6 5 4 3 3 1 1 0 1 1 1 2 2 2 2 3 3 3 3 3 3 4 3 3 5 7 9 8 9 9 10 7 5 3 5 5 5 4 4 4 4 5
5 5 4 2 2 2 2 1 0 0 1 1 1 2 3 3 3 3 3 4 3 3 3 3 5 8 9 8 10 10 11 11 10 11 6 5 6 6 5 7 7 5 6
Wind_Direction
216 213 213 211 207 201 200 199 194 180 178 180 181 182 183 184 185 191 185 180 185 166 162 165 148 151 142 130 109 107 98 309 259 96 99 134 136 83 60 41 38 20 85
220 221 223 215 205 205 206 198 189 191 187 186 184 187 190 192 190 197 191 186 182 173 168 154 152 153 137 134 135 117 113 38 322 142 133 151 153 112 31 31 17 26 353
227 222 222 217 210 210 206 198 193 198 189 193 191 196 196 195 195 198 194 186 185 177 174 179 166 171 159 152 146 141 129 132 58 9 108 94 76 78 353 16 14 18 4
218 216 224 225 218 216 210 203 198 200 197 197 199 199 194 187 191 182 186 183 177 174 163 167 166 177 167 166 160 157 152 148 155 164 158 155 151 102 96 30 349 11 346
221 223 224 211 210 207 204 196 197 203 207 198 191 194 186 191 191 179 184 179 169 164 161 158 160 95 75 74 165 149 164 158 166 165 178 166 134 82 65 32 305 339 327
221 228 231 217 203 206 207 204 195 195 194 189 191 190 192 198 186 189 180 178 172 172 165 149 133 120 120 116 99 73 57 170 147 162 106 203 112 41 19 3 343 360 328
231 232 224 216 212 205 200 201 205 199 189 195 193 195 196 196 186 193 188 178 174 178 168 161 157 155 154 142 134 120 102 85 63 130 158 143 163 79 327 325 3 339 302
244 242 234 220 220 212 204 203 202 195 194 193 196 195 197 198 187 190 182 180 180 181 173 173 170 165 180 167 163 157 146 134 126 106 105 120 101 102 30 26 20 316 281
266 252 236 217 221 212 211 208 204 195 192 192 186 186 190 189 185 187 180 182 178 178 177 181 176 173 170 179 170 166 156 133 114 104 97 96 103 93 61 252 138 274 263
282 275 262 244 232 225 217 213 208 201 195 184 182 185 184 186 188 187 181 173 179 175 171 178 179 178 171 177 184 175 173 165 161 143 137 133 155 124 70 63 143 241 340
267 273 267 245 232 229 215 199 191 191 183 186 182 184 183 193 182 188 188 182 181 176 174 176 183 185 178 178 195 194 188 131 154 146 150 154 168 180 173 165 208 245 233
308 282 244 231 242 222 206 185 187 188 186 186 183 183 187 188 188 192 191 192 186 180 178 176 175 181 175 176 167 172 149 126 137 169 172 179 178 178 177 207 238 247 265
298 289 278 218 191 184 196 195 189 194 196 193 191 189 186 183 191 192 194 195 196 180 174 177 173 177 172 175 171 180 134 156 185 194 195 193 168 132 167 221 222 246 263
294 289 261 278 221 176 194 190 203 205 211 215 205 195 183 180 186 186 188 188 193 185 174 172 177 174 156 146 157 179 170 188 210 219 204 165 130 166 206 204 229 235 267
291 290 282 263 249 250 213 186 204 208 204 204 210 203 191 192 194 188 180 174 174 169 154 158 170 152 147 147 180 169 171 173 208 223 211 194 196 198 210 195 215 229 235
292 283 267 253 243 240 236 225 225 222 217 224 215 207 207 203 197 196 187 181 174 170 155 165 170 171 178 179 180 177 183 194 207 204 202 203 206 211 213 199 204 215 241
281 284 275 256 250 233 225 221 221 226 224 222 216 211 199 196 197 198 192 184 180 172 172 177 180 183 187 183 181 180 184 193 192 203 206 203 202 218 195 227 230 224 236
283 278 278 274 256 246 238 232 219 204 197 202 211 205 203 202 197 195 192 183 185 183 172 181 185 184 181 174 172 177 176 163 182 201 208 207 203 209 214 217 221 219 234
293 284 274 268 260 256 246 236 229 217 209 195 175 195 192 196 198 193 190 186 180 191 189 179 177 168 159 157 165 173 178 188 189 197 206 201 198 198 219 222 226 231 225
287 274 276 278 264 246 243 237 227 228 211 167 177 162 141 166 191 187 182 180 170 151 154 151 142 138 155 159 167 171 180 186 191 198 206 203 201 203 213 204 214 226 213
295 295 272 275 270 259 254 241 231 227 204 188 181 159 173 177 148 127 120 113 114 125 134 137 142 153 162 164 168 181 189 204 201 198 201 202 194 208 209 218 213 210 224
300 302 301 286 291 276 267 259 238 222 205 181 125 182 177 88 102 105 103 109 112 108 118 139 149 161 166 171 178 188 201 207 206 195 200 192 189 201 193 206 208 221 219
303 305 302 297 297 296 289 279 259 241 178 118 119 138 32 127 123 125 129 137 144 151 153 159 167 163 160 163 193 199 204 209 205 193 187 193 197 209 199 209 206 211 221
307 306 305 306 322 314 317 350 28 34 80 105 117 127 132 120 127 144 151 158 163 169 172 185 190 187 188 194 196 209 218 217 177 180 180 186 206 199 203 203 202 211 208
311 310 310 314 311 303 312 332 0 61 81 96 119 126 126 140 160 173 175 178 180 196 200 182 196 211 216 216 214 211 208 213 202 188 167 191 211 209 202 197 207 207 210
309 309 312 318 307 316 314 329 28 107 156 166 176 180 184 191 195 193 193 194 198 199 196 206 217 221 228 228 224 218 218 218 212 206 192 196 201 212 207 213 214 215 222